TANSEI 3 (MS-T3)

Satellite information

Favourite Embed

Satellite Type and Status

PAYLOADIN ORBIT

Key statistics

Satellite TANSEI 3 (MS-T3) at a glance.

Uptime

17829

Days in orbit

Revolutions

≈ 10.7

Per day

Orbit

HEO

HEO

Inclination

65.8

Latest

Satellite identification and parameters

Extended collection of information and parameters for TANSEI 3 (MS-T3).

Object identification

Identified? True

Debris? False

Object name: TANSEI 3 (MS-T3)

International designator: 1977-012A

Object number (NORAD): 9841

Object ID (CCSDS): 9841

Country: JAPAN (JPN)

Current information (Y/N): Y

RCS size: LARGE

Orbital parameters

Period: 134.089 minutes

Inclination: 65.7559 deg

SMA: 8678.07 km

Apoapsis: 3805.208 km

Periapsis: 794.663 km

RAAN: 118.1549 deg

Eccentricy: 0.17345705

Argument of periapsis: 310.7055 deg

Mean anomaly: 35.5314 deg

Mean motion: 10.73910284 rev/day

Mean motion (dot): 0.00000031 rev/day2

B* drag term: 0.00019191523 1/REarth

Two-line elements (TLE)

Creation date: Dec. 12, 2025, 10:14 a.m.

Reference frame: TEME

Reference center: EARTH

Epoch: Dec. 12, 2025, 7:46 a.m. UTC

TLE line 0: 0 TANSEI 3 (MS-T3)

TLE line 1: 1 09841U 77012A 25346.32378538 .00000031 00000-0 19192-3 0 9997

TLE line 2: 2 09841 65.7559 118.1549 1734571 310.7055 35.5314 10.73910284913648

Live tracking on map

Real-time ground track for satellite TANSEI 3 (MS-T3).

In-orbit conjunctions

There are no conjunctions computed for TANSEI 3 (MS-T3), at the moment. Check back to stay up to date, as we update our databases every day.

Go to all conjunctions

Associated space launch

Japanese satellite used to test the new Mu-3H launch vehicle, experiment magnetic stabilization and ovserve UV radiation

TANSEI 3 (MS-T3) was lifted into orbit during the mission ‘Mu-3H | Tansei-3’, on board a Mu-3H space rocket.

The launch took place on Feb. 19, 1977, 5:15 a.m. from Mu Center.

For more information about the launch, click the button.

Launch to space Mu-3H | Tansei-3
Mu-3H | Tansei-3

Agency: N/A

Status: Launch Successful

Launch date: Feb. 19, 1977, 5:15 a.m. UTC

Rocket: Mu-3H

Launch pad: Mu Center

Location: Uchinoura Space Center, Japan

...

Latest news about this satellite

There are no fresh news available about this satellite. Check back as we update our databases every day.


Newsletter sign-up

Weekly statistics, charts and insights to help you stay on top of the space industry.